[[{"header":{"parameterUnit":"m.s-1","parameterCategory":1,"la1":30.2991,"la2":30.254,"lo1":-89.0895,"lo2":-89.0444,"dy":0.0017,"dx":0.0017,"nx":28,"ny":28,"refTime":"2024-04-02T21:00:00:Z","depth":0,"parameterNumber":2,"parameterNumberName":"U-component_of_WINDS"},"data":[0,0,0,0,0,0,0,0,0,0,0,0,0,0,0,0,0,0,0,0,0,0,0,0,0,0,0,0,0,0,0,0,0,0,0,0,0,0,0,0,0,0,0,0,0,0,0,0,0,0,0,0,0,0,0,0,0,0,5.0014,5.0015,0,5.0074,5.0074,5.0075,5.0014,5.0012,5.0009,5.0007,5.0068,5.0072,5.0076,0,0,0,0,0,0,0,0,0,0,0,0,0,4.9849,4.9853,5.0014,5.0015,5.0015,5.0074,5.0074,5.0075,5.0015,5.0012,5.0009,5.0006,5.0067,5.0072,5.0076,0,0,0,0,0,0,0,0,0,0,0,0,0,4.9916,4.9854,5.0014,4.9992,4.9991,5.0073,5.0074,5.0075,5.0015,5.0012,5.0008,5.0005,5.0066,5.0071,5.0077,5.0184,0,0,5.0095,5.0097,0,0,0,0,0,0,0,0,4.9912,4.9922,4.9995,4.9994,4.9992,5.0033,5.0039,5.0112,5.0016,5.0006,5.0007,5.0003,5.0059,5.0065,5.0085,5.0187,5.0189,5.0095,5.0099,5.0101,5.0103,0,0,0,0,0,0,0,4.9908,4.9919,5.0037,4.9996,4.9994,4.998,4.9986,5.0052,5.0052,5.0007,5.0002,5.001,5.0058,5.0079,5.0086,5.019,5.0095,5.01,5.0104,5.0106,5.0386,5.039,0,0,0,0,0,0,4.9905,4.9916,5.0036,5.0039,4.9943,4.9986,4.9992,5.0023,5.0051,5.0052,5.0013,5.0007,5.0071,5.0079,5.0087,5.0216,5.0101,5.0106,5.011,5.0382,5.0387,5.0391,0,0,0,0,0,0,4.9902,4.9917,5.0033,4.9976,4.999,4.9993,5.0028,5.0026,5.0047,5.0056,5.0056,5.0035,5.0069,5.0079,5.0161,5.0217,5.0109,5.0114,5.0377,5.0384,5.0389,5.0473,0,0,0,0,0,0,4.9898,4.9916,4.9956,4.9978,4.9993,5.0105,5.0032,5.003,5.0057,5.005,5.0076,5.0077,5.0067,5.0153,5.0167,5.0223,5.0119,5.0372,5.038,5.0387,5.0465,5.0481,5.0495,0,0,0,0,0,4.9892,4.9976,4.9958,4.9973,5.0043,5.0108,5.0117,5.0104,5.0062,5.0103,5.0109,5.0076,5.0209,5.0162,5.0177,5.0236,5.0369,5.0378,5.0387,5.0459,5.0478,5.0494,0,0,0,0,0,0,4.996,4.9979,4.9959,5.0052,5.008,5.0098,5.0149,5.0124,5.0164,5.0155,5.0137,5.0143,5.023,5.0241,5.0188,5.0342,5.0282,5.0295,5.0332,5.035,5.0365,5.036,5.0124,0,0,0,0,0,4.9986,5.0037,5.0051,5.0132,5.0147,5.0146,5.0174,5.0161,5.0188,5.0199,5.0211,5.0239,5.0288,5.0319,5.0364,5.0467,5.0473,5.0515,5.053,5.0542,5.0553,5.0611,5.063,5.0421,5.0421,5.0421,0,0,5.004,5.0057,5.009,5.0147,5.0166,5.022,5.0156,5.0215,5.0255,5.0208,5.0286,5.0297,5.0327,5.042,5.0462,5.0432,5.0613,5.0554,5.0563,5.0568,5.0622,5.0642,5.0659,5.0427,5.0426,5.0425,0,0,5.0166,5.0184,5.0254,5.0276,5.0307,5.0306,5.0323,5.0346,5.0351,5.043,5.0396,5.0445,5.0527,5.0551,5.0574,5.0713,5.0685,5.0728,5.0805,5.0861,5.0878,5.0892,5.0943,5.0961,5.0739,5.0739,5.0739,0,5.0229,5.0309,5.0294,5.0357,5.0383,5.0345,5.0417,5.0439,5.0482,5.0502,5.0468,5.0574,5.0591,5.069,5.0725,5.0744,5.0764,5.0724,5.0876,5.0891,5.0904,5.0953,5.0972,5.0744,5.0744,5.0743,5.0743,0,5.0386,5.0442,5.0496,5.054,5.0573,5.0641,5.0637,5.0672,5.0658,5.0661,5.0743,5.0763,5.0812,5.0835,5.0821,5.0933,5.0914,5.0879,5.0818,5.093,5.0975,5.0993,5.0752,5.075,5.0748,5.0747,0,0,5.0555,5.0592,5.0612,5.0633,5.0665,5.0708,5.0775,5.0824,5.0855,5.0888,5.0944,5.1017,5.0985,5.1011,5.1,5.105,5.1161,5.1008,5.1009,5.1037,5.1288,5.1314,5.1336,5.1143,5.1146,5.1149,5.1286,0,5.0683,5.0798,5.0787,5.0897,5.095,5.0915,5.0974,5.1001,5.1007,5.1053,5.1059,5.1112,5.1065,5.1081,5.1129,5.1137,5.1211,5.1127,5.1196,5.1198,5.1189,5.1359,5.1387,5.1515,5.1303,5.1306,5.1308,0,5.0846,5.0886,5.1001,5.1028,5.105,5.1102,5.1147,5.1192,5.1223,5.1223,5.1255,5.1236,5.1304,5.1243,5.1338,5.1282,5.131,5.1318,5.1323,5.1329,5.126,5.137,5.1555,5.1575,5.1336,5.1333,5.1331,0,5.0959,5.1041,5.1121,5.1139,5.1172,5.1211,5.1226,5.1254,5.1285,5.1325,5.1345,5.1392,5.1418,5.1456,5.1451,5.1407,5.1549,5.1487,5.1553,5.1553,5.1583,5.1581,5.1776,5.1601,5.1601,5.1601,5.16,0,5.1103,5.1175,5.1172,5.1221,5.1302,5.129,5.1371,5.1382,5.1407,5.1459,5.1432,5.1482,5.1472,5.1522,5.1519,5.16,5.1611,5.1615,5.1613,5.1617,5.1617,5.1635,5.1626,5.1606,5.1605,5.1604,5.1603,0,5.1241,5.1242,5.1328,5.1353,5.1361,5.142,5.1442,5.1489,5.1494,5.156,5.1575,5.1582,5.164,5.1639,5.1704,5.1702,5.1801,5.1789,5.1791,5.1789,5.1855,5.1849,5.2067,5.2096,5.1903,5.1905,5.1906,0,5.1333,5.1388,5.142,5.1453,5.1471,5.1524,5.1556,5.1548,5.1583,5.1624,5.1667,5.1722,5.1765,5.186,5.1871,5.1922,5.1911,5.1984,5.1918,5.1922,5.1913,5.191,5.1916,5.1997,5.1999,5.2001,5.2002,0,5.1496,5.1494,5.1541,5.1589,5.1628,5.1666,5.17,5.1729,5.1725,5.1766,5.1824,5.1858,5.1926,5.1982,5.2032,5.2048,5.2026,5.2023,5.2041,5.2046,5.2045,5.2048,5.1827,5.2018,5.2016,5.2015,5.2014,5.2014,5.1614,5.1662,5.1693,5.1747,5.1772,5.1806,5.1852,5.1864,5.1912,5.1967,5.196,5.2026,5.2058,5.2122,5.2144,5.2197,5.2171,5.2197,5.2203,5.221,5.2218,5.2037,5.2205,5.2205,5.2205,5.2204,5.2204,0,5.1776,5.1795,5.1845,5.1895,5.1938,5.1913,5.1951,5.1989,5.2047,5.2079,5.2123,5.2193,5.2247,5.2265,5.2318,5.2357,5.2348,5.2371,5.2368,5.2373,5.2237,5.2216,5.2378,5.2378,5.2378,5.2378,5.2378,5.2378,5.1866,5.1946,5.1949,5.2043,5.2061,5.2126,5.215,5.2181,5.2207,5.2285,5.2331,5.2342,5.2369,5.2425,5.2475,5.2478,5.25,5.2528,5.2527,5.24,5.2382,5.2366,5.2346,5.2532,5.2532,5.2659,5.266,5.2661]},{"header":{"parameterUnit":"m.s-1","parameterCategory":1,"la1":30.2991,"la2":30.254,"lo1":-89.0895,"lo2":-89.0444,"dy":0.0017,"dx":0.0017,"nx":28,"ny":28,"refTime":"2024-04-02T21:00:00:Z","depth":0,"parameterNumber":3,"parameterNumberName":"V-component_of_WINDS"},"data":[0,0,0,0,0,0,0,0,0,0,0,0,0,0,0,0,0,0,0,0,0,0,0,0,0,0,0,0,0,0,0,0,0,0,0,0,0,0,0,0,0,0,0,0,0,0,0,0,0,0,0,0,0,0,0,0,0,0,-6.3655,-6.3657,0,-6.382,-6.3822,-6.3824,-6.3796,-6.3793,-6.379,-6.3788,-6.3954,-6.3961,-6.3968,0,0,0,0,0,0,0,0,0,0,0,0,0,-6.3313,-6.3319,-6.3655,-6.3657,-6.3659,-6.382,-6.3822,-6.3825,-6.3797,-6.3793,-6.379,-6.3786,-6.3952,-6.396,-6.3969,0,0,0,0,0,0,0,0,0,0,0,0,0,-6.3468,-6.3321,-6.3655,-6.3665,-6.3667,-6.382,-6.3823,-6.3825,-6.3797,-6.3793,-6.3789,-6.3785,-6.3949,-6.3959,-6.397,-6.4122,0,0,-6.4002,-6.4007,0,0,0,0,0,0,0,0,-6.3459,-6.3481,-6.3661,-6.3664,-6.3667,-6.3783,-6.3763,-6.3925,-6.3798,-6.3748,-6.3788,-6.3783,-6.3901,-6.3915,-6.3955,-6.413,-6.4137,-6.4003,-6.401,-6.4014,-6.4017,0,0,0,0,0,0,0,-6.3449,-6.3473,-6.372,-6.3664,-6.3668,-6.366,-6.3677,-6.3793,-6.3846,-6.3752,-6.375,-6.377,-6.3901,-6.3945,-6.3959,-6.4139,-6.4003,-6.4013,-6.4019,-6.4023,-6.4448,-6.4453,0,0,0,0,0,0,-6.3435,-6.3465,-6.3715,-6.3725,-6.3551,-6.367,-6.3689,-6.375,-6.3845,-6.3855,-6.3774,-6.3768,-6.3929,-6.3947,-6.3965,-6.415,-6.4014,-6.4024,-6.403,-6.4444,-6.4449,-6.4455,0,0,0,0,0,0,-6.3428,-6.3458,-6.3708,-6.3595,-6.3626,-6.368,-6.3749,-6.3756,-6.38,-6.3862,-6.3871,-6.3809,-6.3926,-6.395,-6.4084,-6.4155,-6.4029,-6.4039,-6.4438,-6.4445,-6.4452,-6.4521,0,0,0,0,0,0,-6.3418,-6.3455,-6.3514,-6.3596,-6.3632,-6.3825,-6.3754,-6.3762,-6.3818,-6.3813,-6.3897,-6.3907,-6.3925,-6.4068,-6.4094,-6.4168,-6.4047,-6.4432,-6.4441,-6.445,-6.4513,-6.453,-6.4545,0,0,0,0,0,-6.3406,-6.3526,-6.3517,-6.3548,-6.3707,-6.3829,-6.385,-6.3869,-6.3824,-6.3884,-6.3924,-6.3904,-6.4143,-6.4082,-6.4111,-6.4189,-6.4427,-6.4438,-6.4449,-6.4506,-6.4527,-6.4545,0,0,0,0,0,0,-6.345,-6.3537,-6.3528,-6.3678,-6.3747,-6.3824,-6.39,-6.3891,-6.3972,-6.3964,-6.3983,-6.4002,-6.4138,-6.4177,-6.4107,-6.4342,-6.4279,-6.4296,-6.4312,-6.4332,-6.4348,-6.4336,-6.4056,0,0,0,0,0,-6.3477,-6.357,-6.3641,-6.3766,-6.3802,-6.3845,-6.3899,-6.3908,-6.3979,-6.4008,-6.4058,-6.4127,-6.4218,-6.4277,-6.4364,-6.4518,-6.4537,-6.4587,-6.4603,-6.4615,-6.463,-6.4716,-6.4739,-6.4491,-6.4491,-6.4491,0,0,-6.3534,-6.3593,-6.365,-6.3777,-6.3831,-6.3926,-6.3869,-6.3972,-6.4043,-6.4023,-6.4153,-6.4192,-6.4271,-6.4416,-6.4482,-6.4452,-6.4703,-6.4629,-6.4639,-6.4647,-6.4729,-6.4753,-6.4774,-6.4498,-6.4497,-6.4496,0,0,-6.3686,-6.374,-6.3851,-6.3908,-6.3991,-6.4019,-6.4046,-6.4126,-6.4152,-6.4283,-6.427,-6.4354,-6.451,-6.4567,-6.4616,-6.4793,-6.4778,-6.482,-6.4904,-6.4987,-6.5006,-6.5024,-6.5087,-6.5109,-6.4835,-6.4835,-6.4835,0,-6.3746,-6.389,-6.3909,-6.4015,-6.4071,-6.4059,-6.4172,-6.4225,-6.4332,-6.4371,-6.4336,-6.4533,-6.4584,-6.4743,-6.4786,-6.4827,-6.4858,-6.481,-6.5002,-6.502,-6.5036,-6.5097,-6.5121,-6.484,-6.4839,-6.4839,-6.4838,0,-6.396,-6.406,-6.414,-6.4245,-6.4311,-6.4419,-6.4455,-6.4518,-6.4522,-6.4554,-6.4688,-6.475,-6.485,-6.4889,-6.4892,-6.5049,-6.5028,-6.4997,-6.4934,-6.5064,-6.5122,-6.5145,-6.4846,-6.4845,-6.4843,-6.4842,0,0,-6.4143,-6.4259,-6.4288,-6.4337,-6.4429,-6.4506,-6.4614,-6.4713,-6.4768,-6.4842,-6.4933,-6.5067,-6.504,-6.5096,-6.5106,-6.5179,-6.5316,-6.514,-6.5142,-6.5171,-6.5492,-6.5515,-6.5541,-6.5307,-6.5311,-6.5315,-6.5486,0,-6.4305,-6.4497,-6.4518,-6.4689,-6.4782,-6.4773,-6.4867,-6.4933,-6.4966,-6.505,-6.5086,-6.518,-6.5137,-6.5172,-6.5243,-6.5284,-6.5381,-6.5272,-6.5391,-6.5395,-6.5372,-6.5571,-6.5595,-6.5753,-6.5508,-6.5512,-6.5515,0,-6.4518,-6.4601,-6.4782,-6.4862,-6.4902,-6.4986,-6.508,-6.516,-6.5235,-6.5254,-6.5318,-6.5319,-6.543,-6.5363,-6.5517,-6.5443,-6.5493,-6.5521,-6.5527,-6.5539,-6.5463,-6.5588,-6.5804,-6.5828,-6.555,-6.5547,-6.5545,0,-6.4635,-6.4791,-6.492,-6.4961,-6.5058,-6.5118,-6.5161,-6.5232,-6.529,-6.5372,-6.541,-6.5503,-6.5553,-6.5625,-6.5651,-6.56,-6.5804,-6.5739,-6.5823,-6.5822,-6.5866,-6.5863,-6.6093,-6.5898,-6.5898,-6.5897,-6.5897,0,-6.4813,-6.4924,-6.4974,-6.5053,-6.5177,-6.5201,-6.5323,-6.5363,-6.5427,-6.5513,-6.551,-6.5591,-6.5621,-6.5707,-6.5728,-6.5853,-6.5875,-6.5894,-6.5898,-6.5894,-6.5892,-6.5927,-6.5917,-6.5904,-6.5902,-6.5901,-6.59,0,-6.4964,-6.5001,-6.5141,-6.5222,-6.5245,-6.5333,-6.5402,-6.5478,-6.5511,-6.5621,-6.5648,-6.5699,-6.58,-6.5834,-6.5955,-6.597,-6.6115,-6.611,-6.609,-6.6091,-6.6173,-6.6165,-6.6434,-6.6471,-6.6252,-6.6254,-6.6255,0,-6.5075,-6.5161,-6.5251,-6.531,-6.5355,-6.5449,-6.551,-6.5536,-6.5599,-6.5692,-6.5758,-6.5858,-6.594,-6.6103,-6.615,-6.6244,-6.6241,-6.6329,-6.6255,-6.6249,-6.6243,-6.6237,-6.6246,-6.6342,-6.6345,-6.6346,-6.6348,0,-6.5269,-6.5284,-6.5371,-6.5467,-6.5539,-6.5615,-6.5688,-6.5736,-6.5773,-6.5844,-6.5948,-6.6012,-6.6138,-6.6238,-6.6334,-6.6377,-6.637,-6.6371,-6.6396,-6.6393,-6.6378,-6.6388,-6.6128,-6.6365,-6.6363,-6.6362,-6.6361,-6.636,-6.5404,-6.548,-6.5556,-6.5654,-6.5712,-6.5781,-6.5857,-6.59,-6.5988,-6.6094,-6.6104,-6.6216,-6.629,-6.6419,-6.6467,-6.6555,-6.653,-6.6565,-6.6574,-6.6583,-6.659,-6.6364,-6.6572,-6.6572,-6.6572,-6.6571,-6.6571,0,-6.5598,-6.5647,-6.5737,-6.584,-6.5918,-6.5905,-6.5985,-6.6051,-6.615,-6.6221,-6.6302,-6.6422,-6.652,-6.6576,-6.6674,-6.6733,-6.6732,-6.6758,-6.6754,-6.6764,-6.6606,-6.6575,-6.6758,-6.6758,-6.6758,-6.6758,-6.6757,-6.6757,-6.5708,-6.5836,-6.586,-6.6018,-6.6066,-6.6177,-6.6224,-6.6288,-6.6344,-6.6479,-6.6561,-6.6597,-6.6662,-6.6765,-6.6854,-6.6867,-6.6904,-6.6932,-6.6944,-6.6795,-6.6775,-6.6757,-6.6728,-6.694,-6.694,-6.7095,-6.7096,-6.7097]}]]